Location: Duac?
(36.9744°N, 30.6500°E)
Time: 21:49:59
(UTC+00:00)

Daily predictions for brighter satellites

Satellite Brightness Start Highest point End
(mag) Time Altitude Azimuth Time Altitude Azimuth Time Altitude Azimuth
Cosmos 2263 Rocket 4.1 16:09:06 10° SW 16:14:04 33° WNW 16:19:05 10° N
COSMO-SKYMED 1 2.9 16:11:10 10° N 16:15:31 72° WNW 16:19:49 10° SSW
Cosmos 1844 Rocket 2.8 16:13:06 10° S 16:18:27 52° ESE 16:23:51 10° NNE
Shenzhou-11 Module 0.9 16:18:14 10° WSW 16:20:20 72° SSE 16:22:25 10° ENE
NOSS 3-4 (A) 4.1 16:16:30 10° S 16:21:25 29° ESE 16:26:30 10° NE
NOSS 3-4 (C) 4.1 16:16:38 10° S 16:21:32 28° ESE 16:26:36 10° NE
Cosmos 372 Rocket 4.1 16:16:50 10° SSW 16:22:04 83° WNW 16:27:19 10° NNE
Cosmos 1939 Rocket 3.1 16:19:19 10° S 16:23:26 83° WSW 16:27:36 10° NNW
Cosmos 1844 3.9 16:20:13 10° S 16:25:39 48° ESE 16:31:04 10° NE
USA 116 4.0 16:22:21 10° NNE 16:26:06 50° E 16:30:19 10° S
Meteor 1-12 Rocket 4.3 16:22:37 10° S 16:28:26 62° E 16:34:09 10° NNE
Cosmos 1842 4.2 16:25:45 10° NNW 16:29:32 52° W 16:33:18 10° S
Cosmos 1707 2.8 16:28:55 10° N 16:32:39 51° E 16:36:22 10° SSE
CZ-2C R/B 1.8 16:29:46 10° W 16:33:27 44° SSW 16:36:37 12° ESE
ISS -0.8 16:36:31 10° NW 16:37:29 11° NNW 16:38:25 10° N
USA 186 4.0 16:39:33 11° ENE 16:39:33 11° ENE 16:40:08 10° NE
Cosmos 1300 Rocket 3.5 16:35:22 10° S 16:39:44 73° E 16:44:10 10° N
CENTAUR R/B 3.8 16:33:07 10° NNW 16:40:38 38° NE 16:47:33 14° ESE
Cosmos 2298 Rocket 4.2 16:37:27 10° SSW 16:42:46 81° WNW 16:48:08 10° NNE
Okean 1 Rocket 4.1 16:39:22 10° SE 16:42:57 24° E 16:46:33 10° NE
ATLAS 2AS CENTAUR R/B 3.3 16:36:12 10° S 16:43:33 45° ESE 16:51:00 10° NE
Sich 1 Rocket 4.3 16:39:13 10° SSW 16:43:39 60° W 16:48:10 10° N
CSL-04 Debris 4.2 16:40:30 10° SSE 16:45:47 61° ENE 16:51:06 10° N
CSL-04 Rocket 3.7 16:42:30 10° SSE 16:47:49 61° ENE 16:53:15 10° N
ATLAS 3B R/B 4.4 16:48:05 10° N 16:51:59 15° NE 16:55:19 11° ENE
BREEZE-M DEB (TANK) 3.4 16:50:39 10° WSW 16:53:23 67° NW 17:00:47 10° NE
Okean 2 Rocket 3.3 16:49:29 10° SSW 16:53:58 75° W 16:58:27 10° N
YAOGAN 1 2.8 16:50:38 10° S 16:54:56 73° WSW 16:59:16 10° NNW
Cosmos 1766 4.2 16:53:36 16° SE 16:55:49 25° E 16:59:05 10° NNE
Cosmos 1025 Rocket 2.9 16:56:00 10° N 17:00:24 77° E 17:04:48 10° S
Milstar 3 Cent rocket 3.5 16:52:48 10° WSW 17:00:38 35° S 17:03:49 20° SE
Cosmos 1125 Rocket 3.5 16:58:20 10° SSW 17:03:39 87° WNW 17:08:59 10° NNE
GOES 2 Rocket 4.3 17:02:44 10° WSW 17:06:20 26° S 17:07:57 20° SSE
Cosmos 1464 Rocket 4.3 17:01:14 10° SSW 17:07:19 68° W 17:13:29 10° N
Cosmos 2285 Rocket 3.9 17:03:17 10° SSW 17:09:34 80° ESE 17:15:56 10° NNE
USA 238 DEB 3.9 17:02:30 10° NNW 17:09:49 72° ENE 17:15:45 18° SE
USA 238 3.9 17:02:37 10° NNW 17:09:55 71° NE 17:15:48 18° SE
Cosmos 1536 Rocket 3.5 17:05:28 10° N 17:09:56 72° E 17:14:24 10° SSE
CZ-2C R/B 3.4 17:05:24 10° S 17:10:39 74° WSW 17:16:15 10° NNW
Abrixas rocket 4.1 17:09:02 10° NNW 17:10:50 15° NNE 17:10:55 15° NNE
SJ-6B 4.2 17:12:53 21° NE 17:12:53 21° NE 17:14:58 10° NNE
SJ-11-01 4.3 17:07:20 10° SSE 17:12:03 85° W 17:16:46 10° NNW
CZ-4 R/B 3.2 17:09:54 10° SSW 17:13:44 34° W 17:17:32 10° NNW
Cosmos 1092 Rocket 4.2 17:10:03 10° N 17:15:57 44° E 17:19:34 22° SE
TSX-5 3.6 17:20:08 10° SSW 17:23:41 89° ESE 17:28:09 10° NNE
Cosmos 1674 2.5 17:20:46 10° N 17:24:36 69° E 17:25:25 50° SE
ARGOS 3.0 17:20:28 10° SSE 17:25:49 86° ENE 17:31:14 10° NNW
MOS 1 Rocket 3.8 17:22:12 10° N 17:26:25 55° WNW 17:30:35 10° SSW
MOS 1 4.5 17:30:21 38° ESE 17:32:04 50° ENE 17:37:35 10° N
NOSS 3-2 (A) 4.2 17:26:36 10° NW 17:34:27 78° WSW 17:41:26 17° SSE
Cosmos 1048 Rocket 4.4 17:29:25 10° NNW 17:34:43 63° WSW 17:39:30 13° S
CZ-2C R/B 2.6 17:29:08 10° NNE 17:34:44 72° ESE 17:40:20 10° S
Cosmos 1733 3.4 17:38:59 60° NNE 17:38:59 60° NNE 17:42:11 10° N
Cosmos 2082 Rocket 4.2 17:37:37 10° NNE 17:39:26 13° NE 17:39:26 13° NE
DMSP B5D2-2 3.9 17:39:50 10° NNE 17:45:09 77° ESE 17:50:24 10° S
Cosmos 494 Rocket 4.1 17:42:29 10° NNW 17:47:45 76° WSW 17:49:48 38° S
Ariane Rocket 2.8 17:47:53 55° SSE 17:49:01 84° ENE 17:54:07 10° NNW
Cosmos 1805 4.3 17:46:14 10° SSW 17:49:58 45° W 17:53:45 10° N
H-2A R/B 3.3 17:45:33 10° SSW 17:50:08 38° W 17:54:53 10° NNW
USA 234 3.4 17:50:46 47° SE 17:50:46 47° SE 17:56:58 10° SSW
SL-08 RB Rocket 3.9 17:49:45 42° S 17:51:12 70° W 17:55:44 10° NNW
Cosmos 1269 Rocket 3.9 17:54:00 10° NNW 17:59:06 72° NE 17:59:06 72° NE
MetOp-A 4.0 17:58:57 75° SE 17:59:22 82° ENE 18:04:45 10° N
Cosmos 2278 Rocket 2.9 18:00:25 10° SSW 18:10:00 21° NNE 18:11:43 10° NNE
COSMOS 2406 3.7 18:01:18 10° NNW 18:05:51 47° NNE 18:05:51 47° NNE
USA 186 4.5 18:11:03 19° NW 18:11:03 19° NW 18:12:21 10° NNW
Cosmos 1626 4.5 18:06:27 10° N 18:07:28 18° NNW 18:07:28 18° NNW
NOSS 3-4 (C) 4.5 18:06:34 10° WSW 18:12:06 42° NW 18:17:58 10° NNE
CZ-2C R/B 3.9 18:10:31 10° WSW 18:10:59 12° WSW 18:10:59 12° WSW
NOSS 3-2 (C) 4.3 18:04:50 10° NW 18:12:40 70° WSW 18:16:08 40° S
Meteor 2-5 Rocket 4.1 18:11:11 10° NNW 18:16:49 61° W 18:18:15 47° SSW
Meteor 1-24 Rocket 3.8 18:13:49 10° NNW 18:19:24 77° W 18:19:24 77° W
Resurs 01 Rocket 4.0 18:25:52 16° N 18:25:52 16° N 18:26:48 10° N
CENTAUR R/B 3.6 18:23:35 10° NW 18:31:47 58° WSW 18:34:46 41° S
Cosmos 1833 Rocket 3.7 18:26:43 10° NNW 18:30:12 37° N 18:30:12 37° N
ATLAS 2AS CENTAUR R/B 4.1 18:27:11 10° WSW 18:34:36 42° NW 18:42:04 10° NNE
ATLAS 3B R/B 3.1 18:37:04 10° NNW 18:42:35 54° N 18:42:35 54° N
Cosmos 2082 Rocket 4.4 19:19:39 10° NNW 19:21:17 20° NNW 19:21:17 20° NNW
